Time,TemperatureF,DewpointF,PressureIn,WindDirection,WindDirectionDegrees,WindSpeedMPH,WindSpeedGustMPH,Humidity,HourlyPrecipIn,Conditions,Clouds,dailyrainin,SoftwareType,DateUTC
2013-04-27 00:00:00,41.0,35.6,30.09,NNW,338,0.0,0.0,81,0.00,,SKC,0.00,VWS V14.01,2013-04-27 05:00:00,
2013-04-27 00:08:00,40.6,36.0,30.09,WNW,293,0.0,-999.0,82,-99.99,,,0.00,weatherlink.com 1.10,2013-04-27 05:08:00,
2013-04-27 00:23:00,40.1,36.0,30.09,WNW,293,0.0,-999.0,84,-99.99,,,0.00,weatherlink.com 1.10,2013-04-27 05:23:00,
2013-04-27 00:30:00,40.0,35.6,30.09,NNW,338,0.0,0.0,84,0.00,,SKC,0.00,VWS V14.01,2013-04-27 05:30:00,
2013-04-27 00:38:00,39.6,36.0,30.09,WNW,293,0.0,-999.0,85,-99.99,,,0.00,weatherlink.com 1.10,2013-04-27 05:38:00,
2013-04-27 00:53:00,39.1,35.0,30.09,WNW,293,0.0,-999.0,86,-99.99,,,0.00,weatherlink.com 1.10,2013-04-27 05:53:00,
2013-04-27 01:00:00,38.9,35.1,30.09,NNW,338,0.0,0.0,86,0.00,,SKC,0.00,VWS V14.01,2013-04-27 06:00:00,
2013-04-27 01:08:00,38.7,35.0,30.09,WNW,293,0.0,-999.0,87,-99.99,,,0.00,weatherlink.com 1.10,2013-04-27 06:08:00,
2013-04-27 01:23:00,38.3,35.0,30.08,WNW,293,0.0,-999.0,88,-99.99,,,0.00,weatherlink.com 1.10,2013-04-27 06:23:00,
2013-04-27 01:30:00,38.2,35.0,30.09,NNW,338,0.0,0.0,88,0.00,,SKC,0.00,VWS V14.01,2013-04-27 06:30:00,
2013-04-27 01:38:00,37.9,35.0,30.08,WNW,293,0.0,-999.0,89,-99.99,,,0.00,weatherlink.com 1.10,2013-04-27 06:38:00,
2013-04-27 01:53:00,37.4,35.0,30.08,WNW,293,0.0,-999.0,90,-99.99,,,0.00,weatherlink.com 1.10,2013-04-27 06:53:00,
2013-04-27 02:00:00,37.2,34.5,30.08,NNW,338,0.0,0.0,90,0.00,,SKC,0.00,VWS V14.01,2013-04-27 07:00:00,
2013-04-27 02:08:00,36.9,35.0,30.08,WNW,293,0.0,-999.0,91,-99.99,,,0.00,weatherlink.com 1.10,2013-04-27 07:08:00,
2013-04-27 02:23:00,36.5,34.0,30.08,WNW,293,0.0,-999.0,91,-99.99,,,0.00,weatherlink.com 1.10,2013-04-27 07:23:00,
2013-04-27 02:30:00,36.2,33.8,30.08,NNW,338,0.0,0.0,91,0.00,,SKC,0.00,VWS V14.01,2013-04-27 07:30:00,
2013-04-27 02:38:00,35.8,34.0,30.08,WNW,293,0.0,-999.0,91,-99.99,,,0.00,weatherlink.com 1.10,2013-04-27 07:38:00,
2013-04-27 02:53:00,35.4,33.0,30.08,WNW,293,0.0,-999.0,92,-99.99,,,0.00,weatherlink.com 1.10,2013-04-27 07:53:00,
2013-04-27 03:00:00,35.3,33.2,30.08,NNW,338,0.0,0.0,92,0.00,,SKC,0.00,VWS V14.01,2013-04-27 08:00:00,
2013-04-27 03:08:00,35.2,33.0,30.07,WNW,293,0.0,-999.0,93,-99.99,,,0.00,weatherlink.com 1.10,2013-04-27 08:08:00,
2013-04-27 03:23:00,34.8,33.0,30.07,WNW,293,0.0,-999.0,93,-99.99,,,0.00,weatherlink.com 1.10,2013-04-27 08:23:00,
2013-04-27 03:30:00,34.7,32.9,30.07,NNW,338,0.0,0.0,93,0.00,,SKC,0.00,VWS V14.01,2013-04-27 08:30:00,
2013-04-27 03:38:00,34.6,33.0,30.07,WNW,293,0.0,-999.0,93,-99.99,,,0.00,weatherlink.com 1.10,2013-04-27 08:38:00,
2013-04-27 03:53:00,34.4,33.0,30.07,WNW,293,0.0,-999.0,94,-99.99,,,0.00,weatherlink.com 1.10,2013-04-27 08:53:00,
2013-04-27 04:00:00,34.3,32.8,30.07,NNW,338,0.0,0.0,94,0.00,,SKC,0.00,VWS V14.01,2013-04-27 09:00:00,
2013-04-27 04:09:00,33.9,32.0,30.07,WNW,293,0.0,-999.0,93,-99.99,,,0.00,weatherlink.com 1.10,2013-04-27 09:09:00,
2013-04-27 04:24:00,33.7,32.0,30.07,WNW,293,0.0,-999.0,94,-99.99,,,0.00,weatherlink.com 1.10,2013-04-27 09:24:00,
2013-04-27 04:30:00,33.5,32.0,30.07,NNW,338,0.0,0.0,94,0.00,,SKC,0.00,VWS V14.01,2013-04-27 09:30:00,
2013-04-27 04:39:00,33.2,32.0,30.06,WNW,293,0.0,-999.0,94,-99.99,,,0.00,weatherlink.com 1.10,2013-04-27 09:39:00,
2013-04-27 04:54:00,33.1,32.0,30.06,WNW,293,0.0,-999.0,94,-99.99,,,0.00,weatherlink.com 1.10,2013-04-27 09:54:00,
2013-04-27 05:00:00,33.0,31.5,30.05,NNW,338,0.0,1.0,94,0.00,,SKC,0.00,VWS V14.01,2013-04-27 10:00:00,
2013-04-27 05:09:00,32.8,31.0,30.05,WNW,293,0.0,-999.0,94,-99.99,,,0.00,weatherlink.com 1.10,2013-04-27 10:09:00,
2013-04-27 05:24:00,32.6,31.0,30.05,WNW,293,0.0,-999.0,95,-99.99,,,0.00,weatherlink.com 1.10,2013-04-27 10:24:00,
2013-04-27 05:30:00,32.5,31.2,30.05,NNW,338,0.0,0.0,95,0.00,,SKC,0.00,VWS V14.01,2013-04-27 10:30:00,
2013-04-27 05:39:00,32.4,31.0,30.05,WNW,293,0.0,-999.0,95,-99.99,,,0.00,weatherlink.com 1.10,2013-04-27 10:39:00,
2013-04-27 05:54:00,32.1,31.0,30.05,WNW,293,0.0,-999.0,95,-99.99,,,0.00,weatherlink.com 1.10,2013-04-27 10:54:00,
2013-04-27 06:00:00,32.0,30.7,30.05,NNW,338,0.0,0.0,95,0.00,,SKC,0.00,VWS V14.01,2013-04-27 11:00:00,
2013-04-27 06:09:00,32.2,31.0,30.05,WNW,293,0.0,-999.0,96,-99.99,,,0.00,weatherlink.com 1.10,2013-04-27 11:09:00,
2013-04-27 06:24:00,32.1,31.0,30.05,WNW,293,0.0,-999.0,95,-99.99,,,0.00,weatherlink.com 1.10,2013-04-27 11:24:00,
2013-04-27 06:30:00,32.2,30.9,30.05,NNW,338,0.0,0.0,95,0.00,,SKC,0.00,VWS V14.01,2013-04-27 11:30:00,
2013-04-27 06:39:00,32.1,31.0,30.05,WNW,293,0.0,-999.0,95,-99.99,,,0.00,weatherlink.com 1.10,2013-04-27 11:39:00,
2013-04-27 06:54:00,32.6,32.0,30.05,WNW,293,0.0,-999.0,96,-99.99,,,0.00,weatherlink.com 1.10,2013-04-27 11:54:00,
2013-04-27 07:00:00,32.8,31.8,30.05,NNW,338,0.0,0.0,96,0.00,,SKC,0.00,VWS V14.01,2013-04-27 12:00:00,
2013-04-27 07:09:00,33.3,32.0,30.05,WNW,293,0.0,-999.0,96,-99.99,,,0.00,weatherlink.com 1.10,2013-04-27 12:09:00,
2013-04-27 07:24:00,34.1,33.0,30.06,WNW,293,0.0,-999.0,96,-99.99,,,0.00,weatherlink.com 1.10,2013-04-27 12:24:00,
2013-04-27 07:30:00,34.8,34.0,30.05,NNW,338,0.0,0.0,97,0.00,,SKC,0.00,VWS V14.01,2013-04-27 12:30:00,
2013-04-27 07:39:00,37.2,37.0,30.06,WNW,293,0.0,-999.0,97,-99.99,,,0.00,weatherlink.com 1.10,2013-04-27 12:39:00,
2013-04-27 07:54:00,41.1,41.0,30.06,WNW,293,0.0,-999.0,98,-99.99,,,0.00,weatherlink.com 1.10,2013-04-27 12:54:00,
2013-04-27 08:00:00,42.7,40.8,30.07,WNW,292,0.0,4.0,93,0.00,,SKC,0.00,VWS V14.01,2013-04-27 13:00:00,
2013-04-27 08:09:00,46.2,43.0,30.06,WNW,293,0.0,-999.0,87,-99.99,,,0.00,weatherlink.com 1.10,2013-04-27 13:09:00,
2013-04-27 08:24:00,50.2,43.0,30.05,WNW,293,0.0,-999.0,75,-99.99,,,0.00,weatherlink.com 1.10,2013-04-27 13:24:00,
2013-04-27 08:30:00,51.5,42.0,30.06,WNW,292,0.0,1.0,70,0.00,,SKC,0.00,VWS V14.01,2013-04-27 13:30:00,
2013-04-27 08:39:00,54.3,41.0,30.06,SSE,147,0.0,-999.0,61,-99.99,,,0.00,weatherlink.com 1.10,2013-04-27 13:39:00,
2013-04-27 08:54:00,57.4,42.0,30.06,SSE,147,0.0,-999.0,56,-99.99,,,0.00,weatherlink.com 1.10,2013-04-27 13:54:00,
2013-04-27 09:00:00,58.2,41.7,30.06,SSE,158,0.0,5.0,54,0.00,,SKC,0.00,VWS V14.01,2013-04-27 14:00:00,
2013-04-27 09:09:00,59.8,41.0,30.05,SE,130,0.0,-999.0,50,-99.99,,,0.00,weatherlink.com 1.10,2013-04-27 14:09:00,
2013-04-27 09:24:00,59.8,40.0,30.05,South,191,0.0,-999.0,48,-99.99,,,0.00,weatherlink.com 1.10,2013-04-27 14:24:00,
2013-04-27 09:30:00,60.1,40.4,30.05,SE,135,0.0,5.0,48,0.00,,SKC,0.00,VWS V14.01,2013-04-27 14:30:00,
2013-04-27 09:39:00,61.8,40.0,30.05,ESE,123,4.0,-999.0,45,-99.99,,,0.00,weatherlink.com 1.10,2013-04-27 14:39:00,
2013-04-27 09:54:00,63.4,40.0,30.04,SE,141,1.0,-999.0,42,-99.99,,,0.00,weatherlink.com 1.10,2013-04-27 14:54:00,
2013-04-27 10:00:00,63.7,39.6,30.05,SE,135,1.0,7.0,41,0.00,,SKC,0.00,VWS V14.01,2013-04-27 15:00:00,
2013-04-27 10:09:00,64.5,39.0,30.05,SE,132,2.0,-999.0,39,-99.99,,,0.00,weatherlink.com 1.10,2013-04-27 15:09:00,
2013-04-27 10:24:00,65.7,38.0,30.04,WSW,238,0.0,-999.0,36,-99.99,,,0.00,weatherlink.com 1.10,2013-04-27 15:24:00,
2013-04-27 10:30:00,65.8,38.8,30.04,SE,135,1.0,6.0,37,0.00,,SKC,0.00,VWS V14.01,2013-04-27 15:30:00,
2013-04-27 10:40:00,66.8,36.0,30.04,SSE,151,4.0,-999.0,32,-99.99,,,0.00,weatherlink.com 1.10,2013-04-27 15:40:00,
2013-04-27 10:55:00,68.1,35.0,30.04,SE,138,1.0,-999.0,30,-99.99,,,0.00,weatherlink.com 1.10,2013-04-27 15:55:00,
2013-04-27 11:00:00,68.5,35.9,30.03,SE,135,1.0,6.0,30,0.00,,SKC,0.00,VWS V14.01,2013-04-27 16:00:00,
2013-04-27 11:10:00,68.9,35.0,30.03,SSE,161,0.0,-999.0,29,-99.99,,,0.00,weatherlink.com 1.10,2013-04-27 16:10:00,
2013-04-27 11:25:00,69.5,35.0,30.03,West,280,4.0,-999.0,28,-99.99,,,0.00,weatherlink.com 1.10,2013-04-27 16:25:00,
2013-04-27 11:30:00,69.6,36.0,30.03,SE,135,1.0,7.0,29,0.00,,SKC,0.00,VWS V14.01,2013-04-27 16:30:00,
2013-04-27 11:40:00,69.9,34.0,30.02,East,81,0.0,-999.0,27,-99.99,,,0.00,weatherlink.com 1.10,2013-04-27 16:40:00,
2013-04-27 11:55:00,69.9,35.0,30.02,SE,133,2.0,-999.0,28,-99.99,,,0.00,weatherlink.com 1.10,2013-04-27 16:55:00,
2013-04-27 12:00:00,70.0,34.5,30.02,SE,135,2.0,9.0,27,0.00,,SKC,0.00,VWS V14.01,2013-04-27 17:00:00,
2013-04-27 12:10:00,69.7,35.0,30.02,East,96,6.0,-999.0,28,-99.99,,,0.00,weatherlink.com 1.10,2013-04-27 17:10:00,
2013-04-27 12:25:00,70.6,36.0,30.01,ESE,112,2.0,-999.0,28,-99.99,,,0.00,weatherlink.com 1.10,2013-04-27 17:25:00,
2013-04-27 12:30:00,70.8,35.2,30.01,ESE,112,2.0,11.0,27,0.00,,SKC,0.00,VWS V14.01,2013-04-27 17:30:00,
2013-04-27 12:40:00,71.1,33.0,30.00,SE,135,2.0,-999.0,25,-99.99,,,0.00,weatherlink.com 1.10,2013-04-27 17:40:00,
2013-04-27 12:55:00,71.8,35.0,30.00,SE,125,5.0,-999.0,26,-99.99,,,0.00,weatherlink.com 1.10,2013-04-27 17:55:00,
2013-04-27 13:00:00,71.8,34.1,29.99,ESE,112,2.0,10.0,25,0.00,,SKC,0.00,VWS V14.01,2013-04-27 18:00:00,
2013-04-27 13:10:00,71.9,34.0,29.98,ENE,71,4.0,-999.0,25,-99.99,,,0.00,weatherlink.com 1.10,2013-04-27 18:10:00,
2013-04-27 13:25:00,72.6,34.0,29.98,West,259,4.0,-999.0,24,-99.99,,,0.00,weatherlink.com 1.10,2013-04-27 18:25:00,
2013-04-27 13:30:00,72.8,32.9,29.98,ESE,112,2.0,8.0,23,0.00,,SKC,0.00,VWS V14.01,2013-04-27 18:30:00,
2013-04-27 13:40:00,72.5,33.0,29.97,SE,126,4.0,-999.0,23,-99.99,,,0.00,weatherlink.com 1.10,2013-04-27 18:40:00,
2013-04-27 13:55:00,72.8,33.0,29.97,ESE,123,1.0,-999.0,23,-99.99,,,0.00,weatherlink.com 1.10,2013-04-27 18:55:00,
2013-04-27 14:00:00,72.9,31.9,29.97,SE,135,2.0,8.0,22,0.00,,SKC,0.00,VWS V14.01,2013-04-27 19:00:00,
2013-04-27 14:10:00,73.5,31.0,29.96,South,173,1.0,-999.0,21,-99.99,,,0.00,weatherlink.com 1.10,2013-04-27 19:10:00,
2013-04-27 14:25:00,73.7,32.0,29.96,ESE,116,5.0,-999.0,22,-99.99,,,0.00,weatherlink.com 1.10,2013-04-27 19:25:00,
2013-04-27 14:30:00,73.9,31.5,29.95,ESE,112,1.0,8.0,21,0.00,,SKC,0.00,VWS V14.01,2013-04-27 19:30:00,
2013-04-27 14:40:00,74.0,30.0,29.95,ESE,119,2.0,-999.0,20,-99.99,,,0.00,weatherlink.com 1.10,2013-04-27 19:40:00,
2013-04-27 14:55:00,74.2,33.0,29.94,WSW,254,1.0,-999.0,22,-99.99,,,0.00,weatherlink.com 1.10,2013-04-27 19:55:00,
2013-04-27 15:00:00,74.2,31.8,29.94,SE,135,2.0,9.0,21,0.00,,SKC,0.00,VWS V14.01,2013-04-27 20:00:00,
2013-04-27 15:10:00,74.7,32.0,29.93,West,277,5.0,-999.0,21,-99.99,,,0.00,weatherlink.com 1.10,2013-04-27 20:10:00,
2013-04-27 15:25:00,74.7,32.0,29.93,SSE,147,2.0,-999.0,21,-99.99,,,0.00,weatherlink.com 1.10,2013-04-27 20:25:00,
2013-04-27 15:30:00,74.3,31.9,29.92,SE,135,3.0,15.0,21,0.00,,SKC,0.00,VWS V14.01,2013-04-27 20:30:00,
2013-04-27 15:40:00,74.5,32.0,29.92,SE,124,5.0,-999.0,21,-99.99,,,0.00,weatherlink.com 1.10,2013-04-27 20:40:00,
2013-04-27 15:55:00,74.6,33.0,29.91,ESE,118,4.0,-999.0,22,-99.99,,,0.00,weatherlink.com 1.10,2013-04-27 20:55:00,
2013-04-27 16:00:00,74.5,33.2,29.91,ESE,112,2.0,8.0,22,0.00,,SKC,0.00,VWS V14.01,2013-04-27 21:00:00,
2013-04-27 16:10:00,74.7,33.0,29.91,SSW,205,0.0,-999.0,22,-99.99,,,0.00,weatherlink.com 1.10,2013-04-27 21:10:00,
2013-04-27 16:25:00,74.7,32.0,29.90,SSE,150,0.0,-999.0,21,-99.99,,,0.00,weatherlink.com 1.10,2013-04-27 21:25:00,
2013-04-27 16:30:00,74.7,32.2,29.90,ESE,112,2.0,8.0,21,0.00,,SKC,0.00,VWS V14.01,2013-04-27 21:30:00,
2013-04-27 16:40:00,74.1,33.0,29.90,SE,126,4.0,-999.0,22,-99.99,,,0.00,weatherlink.com 1.10,2013-04-27 21:40:00,
2013-04-27 16:55:00,74.8,31.0,29.90,ESE,113,1.0,-999.0,20,-99.99,,,0.00,weatherlink.com 1.10,2013-04-27 21:55:00,
2013-04-27 17:00:00,74.8,32.3,29.90,SE,135,2.0,11.0,21,0.00,,SKC,0.00,VWS V14.01,2013-04-27 22:00:00,
2013-04-27 17:10:00,74.3,31.0,29.89,SSE,161,0.0,-999.0,20,-99.99,,,0.00,weatherlink.com 1.10,2013-04-27 22:10:00,
2013-04-27 17:26:00,73.7,26.0,29.89,SSE,157,1.0,-999.0,17,-99.99,,,0.00,weatherlink.com 1.10,2013-04-27 22:26:00,
2013-04-27 17:30:00,73.6,27.5,29.89,ESE,112,2.0,11.0,18,0.00,,SKC,0.00,VWS V14.01,2013-04-27 22:30:00,
2013-04-27 17:41:00,72.8,28.0,29.89,ESE,117,5.0,-999.0,19,-99.99,,,0.00,weatherlink.com 1.10,2013-04-27 22:41:00,
2013-04-27 17:56:00,72.3,31.0,29.89,SE,128,1.0,-999.0,22,-99.99,,,0.00,weatherlink.com 1.10,2013-04-27 22:56:00,
2013-04-27 18:00:00,72.3,30.2,29.88,SE,135,1.0,7.0,21,0.00,,SKC,0.00,VWS V14.01,2013-04-27 23:00:00,
2013-04-27 18:11:00,72.7,30.0,29.88,SE,144,0.0,-999.0,21,-99.99,,,0.00,weatherlink.com 1.10,2013-04-27 23:11:00,
2013-04-27 18:26:00,71.7,32.0,29.88,ESE,120,8.0,-999.0,23,-99.99,,,0.00,weatherlink.com 1.10,2013-04-27 23:26:00,
2013-04-27 18:30:00,71.5,31.8,29.88,ESE,112,1.0,8.0,23,0.00,,SKC,0.00,VWS V14.01,2013-04-27 23:30:00,
2013-04-27 18:41:00,71.1,32.0,29.88,ESE,113,1.0,-999.0,24,-99.99,,,0.00,weatherlink.com 1.10,2013-04-27 23:41:00,
2013-04-27 18:56:00,70.7,33.0,29.88,ESE,115,0.0,-999.0,25,-99.99,,,0.00,weatherlink.com 1.10,2013-04-27 23:56:00,
2013-04-27 19:00:00,70.4,32.9,29.88,ESE,112,1.0,6.0,25,0.00,,SKC,0.00,VWS V14.01,2013-04-28 00:00:00,
2013-04-27 19:11:00,69.4,33.0,29.87,SE,137,1.0,-999.0,26,-99.99,,,0.00,weatherlink.com 1.10,2013-04-28 00:11:00,
2013-04-27 19:26:00,68.0,34.0,29.87,SE,138,0.0,-999.0,28,-99.99,,,0.00,weatherlink.com 1.10,2013-04-28 00:26:00,
2013-04-27 19:30:00,67.8,33.5,29.87,SE,135,0.0,4.0,28,0.00,,SKC,0.00,VWS V14.01,2013-04-28 00:30:00,
2013-04-27 19:41:00,66.5,34.0,29.87,SE,138,0.0,-999.0,30,-99.99,,,0.00,weatherlink.com 1.10,2013-04-28 00:41:00,
2013-04-27 19:56:00,64.7,35.0,29.86,SE,138,0.0,-999.0,33,-99.99,,,0.00,weatherlink.com 1.10,2013-04-28 00:56:00,
2013-04-27 20:00:00,64.2,36.0,29.86,SE,135,0.0,1.0,35,0.00,,SKC,0.00,VWS V14.01,2013-04-28 01:00:00,
2013-04-27 20:11:00,62.2,36.0,29.86,SE,138,0.0,-999.0,38,-99.99,,,0.00,weatherlink.com 1.10,2013-04-28 01:11:00,
2013-04-27 20:26:00,59.3,36.0,29.86,SE,138,0.0,-999.0,42,-99.99,,,0.00,weatherlink.com 1.10,2013-04-28 01:26:00,
2013-04-27 20:30:00,58.9,36.5,29.86,SE,135,0.0,0.0,43,0.00,,SKC,0.00,VWS V14.01,2013-04-28 01:30:00,
2013-04-27 20:41:00,57.0,36.0,29.86,SE,138,0.0,-999.0,45,-99.99,,,0.00,weatherlink.com 1.10,2013-04-28 01:41:00,
2013-04-27 20:56:00,55.2,36.0,29.86,SE,138,0.0,-999.0,49,-99.99,,,0.00,weatherlink.com 1.10,2013-04-28 01:56:00,
2013-04-27 21:00:00,55.0,36.2,29.86,SE,135,0.0,0.0,49,0.00,,SKC,0.00,VWS V14.01,2013-04-28 02:00:00,
2013-04-27 21:11:00,53.9,36.0,29.85,SE,138,0.0,-999.0,52,-99.99,,,0.00,weatherlink.com 1.10,2013-04-28 02:11:00,
2013-04-27 21:26:00,52.9,36.0,29.85,SE,138,0.0,-999.0,54,-99.99,,,0.00,weatherlink.com 1.10,2013-04-28 02:26:00,
2013-04-27 21:30:00,52.7,36.5,29.85,SE,135,0.0,0.0,54,0.00,,SKC,0.00,VWS V14.01,2013-04-28 02:30:00,
2013-04-27 21:41:00,52.0,36.0,29.85,SE,138,0.0,-999.0,55,-99.99,,,0.00,weatherlink.com 1.10,2013-04-28 02:41:00,
2013-04-27 21:56:00,51.5,37.0,29.85,SE,138,0.0,-999.0,57,-99.99,,,0.00,weatherlink.com 1.10,2013-04-28 02:56:00,
2013-04-27 22:00:00,51.4,36.7,29.85,SE,135,0.0,1.0,57,0.00,,SKC,0.00,VWS V14.01,2013-04-28 03:00:00,
2013-04-27 22:11:00,51.8,37.0,29.84,SE,131,0.0,-999.0,57,-99.99,,,0.00,weatherlink.com 1.10,2013-04-28 03:11:00,
2013-04-27 22:26:00,56.2,38.0,29.84,ESE,121,0.0,-999.0,50,-99.99,,,0.00,weatherlink.com 1.10,2013-04-28 03:26:00,
2013-04-27 22:30:00,56.7,37.8,29.84,SE,135,1.0,6.0,49,0.00,,SKC,0.00,VWS V14.01,2013-04-28 03:30:00,
2013-04-27 22:41:00,58.1,39.0,29.84,ESE,121,0.0,-999.0,50,-99.99,,,0.00,weatherlink.com 1.10,2013-04-28 03:41:00,
2013-04-27 22:56:00,58.6,41.0,29.84,ESE,121,1.0,-999.0,52,-99.99,,,0.00,weatherlink.com 1.10,2013-04-28 03:56:00,
2013-04-27 23:00:00,58.5,41.0,29.84,ESE,112,0.0,5.0,52,0.00,,SKC,0.00,VWS V14.01,2013-04-28 04:00:00,
2013-04-27 23:11:00,58.1,41.0,29.83,ESE,121,0.0,-999.0,53,-99.99,,,0.00,weatherlink.com 1.10,2013-04-28 04:11:00,
2013-04-27 23:26:00,57.7,39.0,29.83,ESE,121,2.0,-999.0,51,-99.99,,,0.00,weatherlink.com 1.10,2013-04-28 04:26:00,
2013-04-27 23:30:00,57.7,39.7,29.83,ESE,112,1.0,6.0,51,0.00,,SKC,0.00,VWS V14.01,2013-04-28 04:30:00,
2013-04-27 23:41:00,57.7,40.0,29.82,SE,126,0.0,-999.0,53,-99.99,,,0.00,weatherlink.com 1.10,2013-04-28 04:41:00,
2013-04-27 23:56:00,57.6,43.0,29.82,SE,132,4.0,-999.0,58,-99.99,,,0.00,weatherlink.com 1.10,2013-04-28 04:56:00,